Brunswick, GA

10:47 PM EDT on May 27, 2017 (GMT -0400)
Glynco Jetport

Weather History for KBQK - July, 2014

Change the Weather History Date:

Monday, July 14, 2014

  Actual Average Record
Temperature  
Mean Temperature 85 °F -  
Max Temperature 93 °F 92 °F 102 °F (1951)
Min Temperature 77 °F 72 °F 64 °F (1974)
Cooling Degree Days 20    
Growing Degree Days 35 (Base 50)    
Moisture  
Dew Point 72 °F    
Average Humidity 68    
Maximum Humidity 89    
Minimum Humidity 46    
Precipitation  
Precipitation 0.00 in - - ()
Sea Level Pressure  
Sea Level Pressure 30.05 in    
Wind  
Wind Speed 1 mph (SSW)    
Max Wind Speed 15 mph    
Max Gust Speed 20 mph    
Visibility 10 miles    
Events      
Averages and records for this station are not official NWS values.
T = Trace of Precipitation, MM = Missing Value Source: NWS Daily Summary

Daily Weather History Graph

Daily Weather History Graph

Search for Another Location

Airport or City:

Trip Planner

Search our weather history database for the weather conditions in past years. The results will help you decide how hot, cold, wet, or windy it might be!

Date:

Astronomy

Jul. 14, 2014 Rise Set
Actual Time 6:31 AM EDT 8:31 PM EDT
Civil Twilight 6:04 AM EDT 8:58 PM EDT
Nautical Twilight 5:31 AM EDT 9:32 PM EDT
Astronomical Twilight 4:55 AM EDT 10:07 PM EDT
Moon 10:15 PM EDT (7/14) 9:00 AM EDT (7/14)
Length of Visible Light 14h 54m
Length of Day
14h 00m
Waning Gibbous, 93% of the Moon is Illuminated
Jul 14
Waning Gibbous
Jul 18
Last Quarter
Jul 26
New
Aug 3
First Quarter
Aug 10
Full

Hourly Weather History & Observations

Time (EDT) Temp. Heat Index Dew Point Humidity Pressure Visibility Wind Dir Wind Speed Gust Speed Precip Events Conditions
12:10 AM 80.6 °F 85.4 °F 73.4 °F 79% 30.10 in 10.0 mi Calm Calm - N/A   Mostly Cloudy
12:30 AM 80.6 °F 85.4 °F 73.4 °F 79% 30.10 in 10.0 mi Calm Calm - N/A   Scattered Clouds
12:50 AM 80.6 °F 85.4 °F 73.4 °F 79% 30.09 in 10.0 mi Calm Calm - N/A   Clear
1:10 AM 80.6 °F 85.4 °F 73.4 °F 79% 30.09 in 10.0 mi Calm Calm - N/A   Clear
1:30 AM 80.6 °F 85.4 °F 73.4 °F 79% 30.09 in 10.0 mi Calm Calm - N/A   Clear
1:50 AM 80.6 °F 85.4 °F 73.4 °F 79% 30.08 in 10.0 mi Calm Calm - N/A   Clear
2:10 AM 78.8 °F - 73.4 °F 83% 30.08 in 10.0 mi Calm Calm - N/A   Clear
2:30 AM 78.8 °F - 73.4 °F 83% 30.08 in 10.0 mi Calm Calm - N/A   Clear
2:50 AM 78.8 °F - 73.4 °F 83% 30.08 in 10.0 mi Calm Calm - N/A   Clear
3:10 AM 78.8 °F - 73.4 °F 83% 30.08 in 10.0 mi Calm Calm - N/A   Clear
3:30 AM 78.8 °F - 73.4 °F 83% 30.08 in 10.0 mi Calm Calm - N/A   Clear
3:50 AM 78.8 °F - 73.4 °F 83% 30.08 in 10.0 mi Calm Calm - N/A   Clear
4:30 AM 78.8 °F - 73.4 °F 83% 30.07 in 10.0 mi Calm Calm - N/A   Clear
4:50 AM 78.8 °F - 73.4 °F 83% 30.07 in 10.0 mi Calm Calm - N/A   Clear
5:10 AM 78.8 °F - 73.4 °F 83% 30.07 in 10.0 mi Calm Calm - N/A   Clear
5:30 AM 78.8 °F - 73.4 °F 83% 30.07 in 10.0 mi Calm Calm - N/A   Clear
5:50 AM 78.8 °F - 73.4 °F 83% 30.08 in 10.0 mi Calm Calm - N/A   Clear
6:10 AM 77.0 °F - 73.4 °F 89% 30.08 in 10.0 mi Calm Calm - N/A   Clear
6:30 AM 77.0 °F - 73.4 °F 89% 30.08 in 10.0 mi Calm Calm - N/A   Clear
6:50 AM 77.0 °F - 73.4 °F 89% 30.08 in 10.0 mi Calm Calm - N/A   Clear
7:10 AM 78.8 °F - 73.4 °F 83% 30.09 in 10.0 mi Calm Calm - N/A   Clear
7:30 AM 78.8 °F - 73.4 °F 83% 30.09 in 10.0 mi Calm Calm - N/A   Clear
7:50 AM 78.8 °F - 73.4 °F 83% 30.10 in 10.0 mi Calm Calm - N/A   Clear
8:10 AM 78.8 °F - 73.4 °F 83% 30.10 in 10.0 mi Calm Calm - N/A   Clear
8:30 AM 80.6 °F 85.4 °F 73.4 °F 79% 30.10 in 10.0 mi Calm Calm - N/A   Clear
8:50 AM 80.6 °F 84.6 °F 71.6 °F 74% 30.11 in 10.0 mi Calm Calm - N/A   Clear
9:10 AM 82.4 °F 87.2 °F 71.6 °F 70% 30.11 in 10.0 mi Calm Calm - N/A   Clear
9:30 AM 82.4 °F 87.2 °F 71.6 °F 70% 30.10 in 10.0 mi Calm Calm - N/A   Clear
9:50 AM 84.2 °F 89.6 °F 71.6 °F 66% 30.09 in 10.0 mi Calm Calm - N/A   Clear
10:10 AM 86.0 °F 93.4 °F 73.4 °F 66% 30.09 in 10.0 mi WSW 5.8 mph - N/A   Clear
10:30 AM 86.0 °F 93.4 °F 73.4 °F 66% 30.09 in 10.0 mi Calm Calm - N/A   Clear
10:50 AM 87.8 °F 95.6 °F 73.4 °F 62% 30.09 in 10.0 mi Calm Calm - N/A   Clear
11:10 AM 87.8 °F 95.6 °F 73.4 °F 62% 30.08 in 10.0 mi Calm Calm - N/A   Clear
11:30 AM 89.6 °F 96.2 °F 71.6 °F 55% 30.08 in 10.0 mi Calm Calm - N/A   Scattered Clouds
11:50 AM 89.6 °F 96.2 °F 71.6 °F 55% 30.08 in 10.0 mi Calm Calm - N/A   Clear
12:10 PM 89.6 °F 96.2 °F 71.6 °F 55% 30.08 in 10.0 mi Calm Calm - N/A   Scattered Clouds
12:30 PM 89.6 °F 96.2 °F 71.6 °F 55% 30.08 in 10.0 mi Calm Calm - N/A   Scattered Clouds
12:50 PM 89.6 °F 96.2 °F 71.6 °F 55% 30.07 in 10.0 mi Calm Calm - N/A   Scattered Clouds
1:10 PM 91.4 °F 98.4 °F 71.6 °F 52% 30.06 in 10.0 mi Calm Calm - N/A   Scattered Clouds
1:30 PM 91.4 °F 96.8 °F 69.8 °F 49% 30.06 in 10.0 mi Calm Calm - N/A   Scattered Clouds
1:50 PM 91.4 °F 96.8 °F 69.8 °F 49% 30.05 in 10.0 mi Calm Calm - N/A   Scattered Clouds
2:10 PM 91.4 °F 96.8 °F 69.8 °F 49% 30.05 in 10.0 mi West 5.8 mph - N/A   Scattered Clouds
2:30 PM 91.4 °F 96.8 °F 69.8 °F 49% 30.04 in 10.0 mi SW 9.2 mph - N/A   Mostly Cloudy
2:50 PM 91.4 °F 95.4 °F 68.0 °F 46% 30.03 in 10.0 mi Calm Calm - N/A   Mostly Cloudy
3:10 PM 91.4 °F 95.4 °F 68.0 °F 46% 30.03 in 10.0 mi Calm Calm - N/A   Mostly Cloudy
3:50 PM 93.2 °F 100.5 °F 71.6 °F 49% 30.01 in 10.0 mi Calm Calm - N/A   Scattered Clouds
4:10 PM 91.4 °F 100.1 °F 73.4 °F 55% 30.00 in 10.0 mi Calm Calm - N/A   Mostly Cloudy
4:30 PM 91.4 °F 100.1 °F 73.4 °F 55% 30.00 in 10.0 mi Calm Calm - N/A   Scattered Clouds
4:50 PM 91.4 °F 100.1 °F 73.4 °F 55% 29.99 in 10.0 mi Calm Calm - N/A   Scattered Clouds
5:10 PM 89.6 °F 98.2 °F 73.4 °F 59% 30.00 in 10.0 mi Calm Calm - N/A   Scattered Clouds
5:50 PM 89.6 °F 98.2 °F 73.4 °F 59% 29.99 in 10.0 mi Calm Calm - N/A   Clear
6:30 PM 87.8 °F 97.6 °F 75.2 °F 66% 29.99 in 10.0 mi SSE 11.5 mph 18.4 mph N/A   Scattered Clouds
6:50 PM 87.8 °F 95.6 °F 73.4 °F 62% 29.98 in 10.0 mi South 12.7 mph 19.6 mph N/A   Scattered Clouds
7:10 PM 87.8 °F 93.8 °F 71.6 °F 58% 29.98 in 10.0 mi SSE 15.0 mph 18.4 mph N/A   Clear
7:30 PM 87.8 °F 93.8 °F 71.6 °F 58% 29.98 in 10.0 mi South 10.4 mph 16.1 mph N/A   Clear
7:50 PM 86.0 °F 90.4 °F 69.8 °F 58% 29.98 in 10.0 mi South 13.8 mph - N/A   Clear
8:10 PM 86.0 °F 89.4 °F 68.0 °F 55% 29.99 in 10.0 mi SSW 10.4 mph - N/A   Clear
8:30 PM 84.2 °F 87.3 °F 68.0 °F 58% 30.00 in 10.0 mi SSW 10.4 mph - N/A   Clear
8:50 PM 82.4 °F 85.4 °F 68.0 °F 62% 29.99 in 10.0 mi South 12.7 mph - N/A   Scattered Clouds
9:10 PM 82.4 °F 86.3 °F 69.8 °F 66% 30.00 in 10.0 mi South 9.2 mph - N/A   Scattered Clouds
9:30 PM 80.6 °F 83.2 °F 68.0 °F 65% 30.00 in 10.0 mi South 8.1 mph - N/A   Scattered Clouds
9:50 PM 80.6 °F 83.2 °F 68.0 °F 65% 30.00 in 10.0 mi Calm Calm - N/A   Clear
10:10 PM 80.6 °F 82.7 °F 66.2 °F 61% 30.01 in 10.0 mi Calm Calm - N/A   Clear
10:30 PM 80.6 °F 83.2 °F 68.0 °F 65% 30.01 in 10.0 mi Calm Calm - N/A   Scattered Clouds
10:50 PM 80.6 °F 83.2 °F 68.0 °F 65% 30.01 in 10.0 mi Calm Calm - N/A   Scattered Clouds
11:10 PM 80.6 °F 83.2 °F 68.0 °F 65% 30.02 in 10.0 mi Calm Calm - N/A   Clear
11:30 PM 78.8 °F - 68.0 °F 69% 30.02 in 10.0 mi Calm Calm - N/A   Scattered Clouds
11:50 PM 78.8 °F - 68.0 °F 69% 30.01 in 10.0 mi Calm Calm - N/A   Scattered Clouds